TimeCDT,TemperatureF,Dew PointF,Humidity,Sea Level PressureIn,VisibilityMPH,Wind Direction,Wind SpeedMPH,Gust SpeedMPH,PrecipitationIn,Events,Conditions,WindDirDegrees,DateUTC
12:15 AM,55.9,52.2,87,30.02,5.0,Calm,Calm,-,0.03,Rain,Rain,0,2013-09-15 05:15:00
12:35 AM,55.4,53.4,93,30.02,7.0,Calm,Calm,-,0.06,Rain,Light Rain,0,2013-09-15 05:35:00
12:55 AM,54.9,53.2,94,30.02,4.0,South,3.5,-,0.13,Rain,Rain,190,2013-09-15 05:55:00
1:15 AM,54.7,53.1,94,30.02,7.0,Calm,Calm,-,0.02,Rain,Rain,0,2013-09-15 06:15:00
1:35 AM,54.7,52.9,94,30.01,10.0,Calm,Calm,-,0.06,Rain,Light Rain,0,2013-09-15 06:35:00
1:55 AM,54.5,53.2,96,30.01,7.0,ESE,3.5,-,0.09,Rain,Light Rain,110,2013-09-15 06:55:00
2:15 AM,54.5,53.2,96,30.00,10.0,Calm,Calm,-,0.01,,Drizzle,0,2013-09-15 07:15:00
2:35 AM,54.7,52.9,94,29.99,7.0,SSE,5.8,-,0.02,Rain,Rain,160,2013-09-15 07:35:00
2:55 AM,54.7,52.7,93,29.98,10.0,SSE,8.1,-,0.02,,Light Drizzle,150,2013-09-15 07:55:00
3:15 AM,54.7,52.7,93,29.97,10.0,SE,5.8,-,N/A,,Overcast,140,2013-09-15 08:15:00
3:35 AM,54.9,52.7,92,29.96,10.0,SSE,6.9,-,N/A,,Light Drizzle,150,2013-09-15 08:35:00
3:55 AM,55.4,52.7,91,29.95,10.0,SSE,6.9,-,N/A,,Overcast,150,2013-09-15 08:55:00
4:15 AM,55.4,52.7,91,29.94,10.0,ESE,5.8,-,N/A,,Overcast,120,2013-09-15 09:15:00
4:35 AM,55.4,52.7,91,29.93,10.0,SE,4.6,-,N/A,,Overcast,130,2013-09-15 09:35:00
4:55 AM,55.4,52.7,91,29.93,10.0,SSE,5.8,-,N/A,,Overcast,160,2013-09-15 09:55:00
5:15 AM,55.6,52.3,89,29.92,10.0,South,4.6,-,N/A,,Overcast,170,2013-09-15 10:15:00
5:35 AM,55.8,52.7,89,29.93,10.0,South,5.8,-,N/A,,Overcast,170,2013-09-15 10:35:00
5:55 AM,55.6,52.7,90,29.94,10.0,SSW,4.6,-,N/A,Rain,Light Rain,200,2013-09-15 10:55:00
6:15 AM,55.4,52.7,91,29.95,10.0,Calm,Calm,-,N/A,,Overcast,0,2013-09-15 11:15:00
6:35 AM,55.4,53.4,93,29.94,10.0,Calm,Calm,-,N/A,,Drizzle,0,2013-09-15 11:35:00
6:55 AM,55.4,53.6,94,29.96,7.0,Calm,Calm,-,N/A,,Drizzle,0,2013-09-15 11:55:00
7:15 AM,54.9,53.6,96,29.95,3.0,Calm,Calm,-,0.06,Rain,Heavy Rain,0,2013-09-15 12:15:00
7:35 AM,54.9,53.8,96,29.96,5.0,Calm,Calm,-,0.11,Rain,Rain,0,2013-09-15 12:35:00
7:55 AM,54.7,53.8,97,29.97,7.0,Calm,Calm,-,0.14,Rain,Light Rain,0,2013-09-15 12:55:00
8:15 AM,54.7,53.8,97,29.98,7.0,North,4.6,-,0.02,Rain,Rain,350,2013-09-15 13:15:00
8:35 AM,54.7,53.8,97,29.98,3.0,Calm,Calm,-,0.07,Rain,Rain,0,2013-09-15 13:35:00
8:55 AM,55.0,54.1,97,29.98,3.0,Calm,Calm,-,0.12,Rain,Rain,0,2013-09-15 13:55:00
9:15 AM,54.9,54.0,97,29.98,2.0,Calm,Calm,-,0.08,Rain,Rain,0,2013-09-15 14:15:00
9:35 AM,55.4,54.5,97,30.00,4.0,Calm,Calm,-,0.11,Rain,Light Rain,0,2013-09-15 14:35:00
9:55 AM,55.4,54.5,97,30.01,10.0,Calm,Calm,-,0.12,Rain,Light Rain,0,2013-09-15 14:55:00
10:15 AM,55.6,54.5,96,30.01,10.0,North,3.5,-,N/A,,Overcast,10,2013-09-15 15:15:00
10:35 AM,56.1,55.0,96,30.01,10.0,North,4.6,-,N/A,,Overcast,10,2013-09-15 15:35:00
10:55 AM,56.5,55.4,96,30.02,10.0,NNE,4.6,-,N/A,,Overcast,30,2013-09-15 15:55:00
11:15 AM,56.5,55.0,95,30.02,10.0,North,4.6,-,N/A,,Overcast,10,2013-09-15 16:15:00
11:35 AM,56.8,55.4,95,30.02,7.0,North,3.5,-,N/A,,Overcast,360,2013-09-15 16:35:00
11:55 AM,57.4,55.6,94,30.03,10.0,North,4.6,-,N/A,,Overcast,10,2013-09-15 16:55:00
12:15 PM,59.4,55.6,87,30.03,10.0,North,5.8,-,N/A,,Overcast,10,2013-09-15 17:15:00
12:35 PM,60.4,54.9,82,30.04,10.0,NE,9.2,-,N/A,,Overcast,40,2013-09-15 17:35:00
12:55 PM,60.4,54.0,79,30.05,10.0,North,8.1,-,N/A,,Overcast,10,2013-09-15 17:55:00
1:15 PM,60.4,53.6,78,30.05,10.0,NE,11.5,-,N/A,,Overcast,50,2013-09-15 18:15:00
1:35 PM,62.6,53.1,71,30.06,10.0,NE,10.4,-,N/A,,Overcast,40,2013-09-15 18:35:00
1:55 PM,64.6,53.4,67,30.06,10.0,NE,10.4,-,N/A,,Mostly Cloudy,40,2013-09-15 18:55:00
2:15 PM,63.3,52.7,68,30.07,10.0,ENE,9.2,-,N/A,,Mostly Cloudy,60,2013-09-15 19:15:00
2:35 PM,66.2,51.1,58,30.07,10.0,ENE,10.4,-,N/A,,Scattered Clouds,60,2013-09-15 19:35:00
2:55 PM,66.7,51.3,57,30.07,10.0,ENE,11.5,-,N/A,,Mostly Cloudy,70,2013-09-15 19:55:00
3:15 PM,64.8,51.4,62,30.09,10.0,NNE,9.2,-,N/A,,Overcast,20,2013-09-15 20:15:00
3:35 PM,65.5,51.8,61,30.09,10.0,North,10.4,-,N/A,,Overcast,360,2013-09-15 20:35:00
3:55 PM,64.0,51.4,64,30.10,10.0,NNE,8.1,-,N/A,,Overcast,20,2013-09-15 20:55:00
4:15 PM,65.3,51.3,60,30.10,10.0,NNE,8.1,-,N/A,,Mostly Cloudy,30,2013-09-15 21:15:00
4:35 PM,67.3,50.2,54,30.11,10.0,North,8.1,-,N/A,,Scattered Clouds,360,2013-09-15 21:35:00
4:55 PM,66.2,49.3,54,30.12,10.0,NNE,5.8,-,N/A,,Scattered Clouds,30,2013-09-15 21:55:00
5:15 PM,65.8,50.4,57,30.12,10.0,NE,6.9,-,N/A,,Mostly Cloudy,50,2013-09-15 22:15:00
5:35 PM,64.6,50.5,60,30.13,10.0,NE,4.6,-,N/A,,Overcast,40,2013-09-15 22:35:00
5:55 PM,64.4,51.3,62,30.14,10.0,Calm,Calm,-,N/A,,Overcast,0,2013-09-15 22:55:00
6:15 PM,64.4,51.8,64,30.15,10.0,North,4.6,-,N/A,,Overcast,10,2013-09-15 23:15:00
6:35 PM,64.4,52.2,64,30.15,10.0,North,4.6,-,N/A,,Overcast,360,2013-09-15 23:35:00
6:55 PM,63.7,52.2,66,30.16,10.0,North,8.1,-,N/A,,Overcast,360,2013-09-15 23:55:00
7:15 PM,63.0,52.0,67,30.17,10.0,North,3.5,-,N/A,,Overcast,360,2013-09-16 00:15:00
7:35 PM,62.6,52.0,68,30.18,10.0,North,10.4,-,N/A,,Overcast,360,2013-09-16 00:35:00
7:55 PM,61.9,52.2,70,30.19,10.0,North,8.1,-,N/A,,Overcast,10,2013-09-16 00:55:00
8:15 PM,61.5,52.2,71,30.20,10.0,NNE,8.1,-,N/A,,Overcast,30,2013-09-16 01:15:00
8:35 PM,61.0,52.0,72,30.22,10.0,NE,5.8,-,N/A,,Overcast,40,2013-09-16 01:35:00
8:55 PM,59.9,50.2,70,30.22,10.0,North,8.1,19.6,N/A,,Overcast,10,2013-09-16 01:55:00
9:15 PM,58.3,49.8,73,30.24,10.0,North,9.2,16.1,N/A,,Scattered Clouds,10,2013-09-16 02:15:00
9:35 PM,57.7,49.3,73,30.25,10.0,North,9.2,-,N/A,,Mostly Cloudy,360,2013-09-16 02:35:00
9:55 PM,57.0,48.7,74,30.25,10.0,NNE,5.8,-,N/A,,Mostly Cloudy,20,2013-09-16 02:55:00
10:15 PM,56.3,48.4,75,30.26,10.0,NE,5.8,-,N/A,,Mostly Cloudy,40,2013-09-16 03:15:00
10:35 PM,55.6,48.4,77,30.26,10.0,NE,4.6,-,N/A,,Scattered Clouds,40,2013-09-16 03:35:00
10:55 PM,55.4,48.4,77,30.27,10.0,NE,4.6,-,N/A,,Overcast,50,2013-09-16 03:55:00
11:15 PM,55.9,48.2,75,30.27,10.0,ENE,8.1,-,N/A,,Overcast,60,2013-09-16 04:15:00
11:35 PM,55.6,46.6,72,30.28,10.0,ENE,10.4,-,N/A,,Overcast,60,2013-09-16 04:35:00
11:55 PM,55.4,46.4,72,30.29,10.0,NE,5.8,-,N/A,,Overcast,50,2013-09-16 04:55:00